Meteo pe oră la Bolshie Lezhni

Astăzi, 6 Mai, Joi

Timp Temperatura Precipitaţii Vânt Presiune Umiditate
00:00 +10°C° 0.2 mm 3 m/s 736 mmHg 94%
01:00 +9°C° 0.2 mm 3 m/s 736 mmHg 95%
02:00 +8°C° 0 mm 3 m/s 736 mmHg 95%
03:00 +8°C° 0.2 mm 3 m/s 735 mmHg 95%
04:00 +8°C° 0.2 mm 3 m/s 735 mmHg 95%
05:00 +8°C° 0.2 mm 3 m/s 734 mmHg 96%
06:00 +6°C° 2.3 mm 4 m/s 735 mmHg 95%
07:00 +6°C° 2.3 mm 4 m/s 735 mmHg 94%
08:00 +5°C° 2.3 mm 5 m/s 735 mmHg 93%
09:00 +6°C° 0.4 mm 5 m/s 736 mmHg 88%
10:00 +7°C° 0.4 mm 5 m/s 736 mmHg 82%
11:00 +8°C° 0.4 mm 5 m/s 736 mmHg 77%
12:00 +8°C° 0.4 mm 6 m/s 737 mmHg 75%
13:00 +8°C° 0.4 mm 7 m/s 738 mmHg 74%
14:00 +9°C° 0.4 mm 8 m/s 738 mmHg 72%
15:00 +8°C° 0.4 mm 7 m/s 739 mmHg 74%
16:00 +8°C° 0.4 mm 7 m/s 739 mmHg 76%
17:00 +6°C° 0.4 mm 7 m/s 740 mmHg 78%
18:00 +5°C° 0.1 mm 6 m/s 740 mmHg 80%
19:00 +5°C° 0.1 mm 5 m/s 740 mmHg 81%
20:00 +4°C° 0.1 mm 3 m/s 741 mmHg 83%
21:00 +4°C° 0 mm 4 m/s 741 mmHg 84%
22:00 +3°C° 0 mm 4 m/s 741 mmHg 86%
23:00 +3°C° 0 mm 4 m/s 742 mmHg 87%

Mâine, 7 Mai, Vineri

Timp Temperatura Precipitaţii Vânt Presiune Umiditate
00:00 +3°C° 0 mm 4 m/s 742 mmHg 87%
01:00 +1°C° 0 mm 4 m/s 742 mmHg 87%
02:00 +1°C° 0 mm 4 m/s 742 mmHg 86%
03:00 +1°C° 0 mm 4 m/s 742 mmHg 86%
04:00 +1°C° 0 mm 4 m/s 742 mmHg 85%
05:00 +3°C° 0 mm 4 m/s 742 mmHg 85%
06:00 +4°C° 0.3 mm 4 m/s 742 mmHg 83%
07:00 +5°C° 0.3 mm 5 m/s 742 mmHg 82%
08:00 +5°C° 0.3 mm 5 m/s 743 mmHg 81%
09:00 +7°C° 0.1 mm 5 m/s 743 mmHg 74%
10:00 +8°C° 0.1 mm 5 m/s 742 mmHg 67%
11:00 +11°C° 0.1 mm 4 m/s 742 mmHg 60%
12:00 +11°C° 0.1 mm 4 m/s 742 mmHg 61%
13:00 +10°C° 0.1 mm 5 m/s 742 mmHg 62%
14:00 +10°C° 0.1 mm 5 m/s 742 mmHg 63%
15:00 +11°C° 0.1 mm 4 m/s 742 mmHg 68%
16:00 +10°C° 0.1 mm 3 m/s 741 mmHg 73%
17:00 +10°C° 0.1 mm 2 m/s 741 mmHg 78%
18:00 +9°C° 1 mm 2 m/s 740 mmHg 84%
19:00 +8°C° 1 mm 2 m/s 740 mmHg 90%
20:00 +8°C° 1 mm 2 m/s 740 mmHg 96%
21:00 +8°C° 0.7 mm 3 m/s 739 mmHg 96%
22:00 +8°C° 0.7 mm 3 m/s 738 mmHg 96%
23:00 +8°C° 0.7 mm 3 m/s 738 mmHg 96%

Poimâine, 8 Mai, Sâmbătă

Timp Temperatura Precipitaţii Vânt Presiune Umiditate
00:00 +7°C° 0 mm 3 m/s 738 mmHg 96%
01:00 +7°C° 0 mm 3 m/s 738 mmHg 96%
02:00 +7°C° 0 mm 2 m/s 737 mmHg 97%
03:00 +7°C° 0.2 mm 3 m/s 737 mmHg 96%
04:00 +7°C° 0.2 mm 3 m/s 737 mmHg 96%
05:00 +7°C° 0.2 mm 3 m/s 737 mmHg 96%
06:00 +7°C° 0.4 mm 3 m/s 737 mmHg 94%
07:00 +7°C° 0.4 mm 4 m/s 737 mmHg 91%
08:00 +7°C° 0.4 mm 4 m/s 737 mmHg 89%
09:00 +6°C° 0.6 mm 5 m/s 737 mmHg 91%
10:00 +3°C° 0.6 mm 5 m/s 737 mmHg 93%
11:00 +2°C° 0.6 mm 6 m/s 738 mmHg 95%
12:00 +2°C° 1.4 mm 6 m/s 739 mmHg 95%
13:00 +2°C° 1.4 mm 7 m/s 740 mmHg 95%
14:00 +2°C° 1.4 mm 7 m/s 741 mmHg 95%
15:00 +3°C° 0.3 mm 7 m/s 741 mmHg 90%
16:00 +4°C° 0.3 mm 7 m/s 742 mmHg 85%
17:00 +5°C° 0.3 mm 7 m/s 742 mmHg 80%
18:00 +4°C° 0 mm 6 m/s 743 mmHg 82%
19:00 +3°C° 0 mm 5 m/s 744 mmHg 83%
20:00 +3°C° 0 mm 4 m/s 744 mmHg 85%
21:00 +1°C° 0 mm 4 m/s 745 mmHg 86%
22:00 +1°C° 0 mm 4 m/s 745 mmHg 88%
23:00 +1°C° 0 mm 4 m/s 746 mmHg 89%

9 Mai, Duminică

Timp Temperatura Precipitaţii Vânt Presiune Umiditate
00:00 0°C° 0 mm 4 m/s 747 mmHg 89%
01:00 0°C° 0 mm 4 m/s 747 mmHg 89%
02:00 -1°C° 0 mm 4 m/s 748 mmHg 88%
03:00 0°C° 0 mm 3 m/s 749 mmHg 89%
04:00 -1°C° 0 mm 3 m/s 749 mmHg 89%
05:00 -1°C° 0 mm 3 m/s 750 mmHg 90%
06:00 +1°C° 0 mm 3 m/s 751 mmHg 81%
07:00 +3°C° 0 mm 3 m/s 751 mmHg 73%
08:00 +5°C° 0 mm 4 m/s 752 mmHg 65%
09:00 +6°C° 0 mm 4 m/s 752 mmHg 58%
10:00 +8°C° 0 mm 4 m/s 752 mmHg 52%
11:00 +10°C° 0 mm 4 m/s 753 mmHg 45%
12:00 +11°C° 0 mm 4 m/s 753 mmHg 44%
13:00 +12°C° 0 mm 4 m/s 753 mmHg 43%
14:00 +12°C° 0 mm 4 m/s 753 mmHg 42%
15:00 +12°C° 0 mm 3 m/s 753 mmHg 45%
16:00 +12°C° 0 mm 3 m/s 753 mmHg 47%
17:00 +12°C° 0 mm 3 m/s 753 mmHg 50%
18:00 +11°C° 0 mm 3 m/s 753 mmHg 58%
19:00 +9°C° 0 mm 2 m/s 754 mmHg 65%
20:00 +7°C° 0 mm 2 m/s 754 mmHg 73%
21:00 +6°C° 0 mm 2 m/s 754 mmHg 74%
22:00 +6°C° 0 mm 2 m/s 754 mmHg 75%
23:00 +4°C° 0 mm 3 m/s 755 mmHg 76%

10 Mai, Luni

Timp Temperatura Precipitaţii Vânt Presiune Umiditate
00:00 +4°C° 0 mm 3 m/s 755 mmHg 77%
01:00 +4°C° 0 mm 3 m/s 755 mmHg 77%
02:00 +3°C° 0 mm 3 m/s 755 mmHg 77%
03:00 +4°C° 0 mm 3 m/s 755 mmHg 76%
04:00 +4°C° 0 mm 3 m/s 756 mmHg 76%
05:00 +4°C° 0 mm 3 m/s 756 mmHg 76%
06:00 +6°C° 0 mm 4 m/s 756 mmHg 71%
07:00 +8°C° 0 mm 4 m/s 756 mmHg 67%
08:00 +11°C° 0 mm 4 m/s 756 mmHg 62%
09:00 +12°C° 0 mm 4 m/s 756 mmHg 59%
10:00 +14°C° 0 mm 4 m/s 756 mmHg 56%
11:00 +15°C° 0 mm 4 m/s 756 mmHg 53%
12:00 +17°C° 0 mm 4 m/s 756 mmHg 52%
13:00 +18°C° 0 mm 4 m/s 756 mmHg 51%
14:00 +18°C° 0 mm 4 m/s 756 mmHg 50%
15:00 +18°C° 0 mm 4 m/s 756 mmHg 53%
16:00 +18°C° 0 mm 4 m/s 756 mmHg 56%
17:00 +18°C° 0 mm 4 m/s 755 mmHg 59%
18:00 +15°C° 0 mm 4 m/s 755 mmHg 66%
19:00 +13°C° 0 mm 3 m/s 755 mmHg 73%
20:00 +11°C° 0 mm 3 m/s 756 mmHg 80%
21:00 +10°C° 0 mm 3 m/s 756 mmHg 82%
22:00 +9°C° 0 mm 3 m/s 756 mmHg 84%
23:00 +8°C° 0 mm 3 m/s 756 mmHg 86%

11 Mai, Marţi

Timp Temperatura Precipitaţii Vânt Presiune Umiditate
00:00 +8°C° 0 mm 3 m/s 756 mmHg 85%
01:00 +8°C° 0 mm 3 m/s 756 mmHg 85%
02:00 +6°C° 0 mm 4 m/s 756 mmHg 84%
03:00 +7°C° 0 mm 3 m/s 756 mmHg 84%
04:00 +7°C° 0 mm 3 m/s 756 mmHg 83%
05:00 +7°C° 0 mm 3 m/s 756 mmHg 83%
06:00 +9°C° 0 mm 3 m/s 756 mmHg 76%
07:00 +11°C° 0 mm 3 m/s 756 mmHg 70%
08:00 +13°C° 0 mm 4 m/s 756 mmHg 63%
09:00 +14°C° 0 mm 4 m/s 756 mmHg 59%
10:00 +15°C° 0 mm 4 m/s 756 mmHg 54%
11:00 +18°C° 0 mm 4 m/s 756 mmHg 49%
12:00 +18°C° 0 mm 4 m/s 756 mmHg 48%
13:00 +19°C° 0 mm 4 m/s 755 mmHg 46%
14:00 +20°C° 0 mm 4 m/s 755 mmHg 44%
15:00 +19°C° 0 mm 4 m/s 755 mmHg 49%
16:00 +19°C° 0 mm 4 m/s 755 mmHg 55%
17:00 +19°C° 0 mm 4 m/s 754 mmHg 61%
18:00 +17°C° 0 mm 3 m/s 754 mmHg 69%
19:00 +16°C° 0 mm 3 m/s 754 mmHg 78%
20:00 +13°C° 0 mm 3 m/s 754 mmHg 86%
21:00 +12°C° 0 mm 3 m/s 754 mmHg 88%
22:00 +12°C° 0 mm 3 m/s 754 mmHg 90%
23:00 +12°C° 0 mm 3 m/s 754 mmHg 92%
Arată mai mult

Formular de consimțământ

Meteoprog și furnizorii noștri de servicii pot stoca și accesa date personale, precum cookies, identificatori de dispozitiv sau alte tehnologii similare pe dispozitivul dumneavoastră și procesa astfel de date pentru a personaliza conținutul și reclamele, dar și pentru a oferi caracteristici de social media și pentru a analiza traficul.

  • Stocarea și/sau accesarea informațiilor pe dispozitivul dumneavoastră

    Cookies, identificatori de dispozitiv sau alte informații pot fi stocate sau accesate pe dispozitiv în scopurile indicate mai sus.

  • Reclame și conținut personalizat, evaluarea reclamelor și a conținutului, informații despre audiențe și dezvoltarea produselor

    Reclamele și conținutul pot fi personalizate pe baza unui profil. Pot fi adăugate date suplimentare pentru a personaliza mai bine reclamele și conținutul. Performanța reclamelor și conținutului poate fi măsurată. Pot fi obținute informații despre utilizatorii care au văzut reclamele și conținutul. Aceste date pot fi utilizate pentru a dezvolta sau îmbunătăți experiența utilizatorilor, sistemele și software-ul.

Dând clic pe ‘Sunt de acord’, permiteți utilizarea cookie-urilor menționate, a identificatorilor de dispozitiv, balizelor web sau altor tehnologii similare. Setările pot fi modificate din browser-ul dispozitivului dumneavoastră.

În anumite scopuri, interesele legitime pot prima asupra consimțământului. Puteți citi mai multe informații în acest sens în Politica privind Confidențialitatea Datelor și Cookie.